This is the latest recevied weather packets stored in our database for station/object OK1JIL-13. If no packets are shown the sender has not sent any weather packets the latest 10 day(s).
| Time | Temp. | Humidity | Pressure | Rain* | Wind** | Luminosity | Snow |
|---|---|---|---|---|---|---|---|
| 1777703600 | 17.78° C | 27% | 1027 hPa | - | - | - | - |
| 1777703001 | 17.78° C | 28% | 1027 hPa | - | - | - | - |
| 1777702400 | 18.89° C | 27% | 1026.9 hPa | - | - | - | - |
| 1777701800 | 17.78° C | 28% | 1026.9 hPa | - | - | - | - |
| 1777701200 | 18.33° C | 25% | 1026.9 hPa | - | - | - | - |
| 1777700601 | 18.89° C | 26% | 1026.9 hPa | - | - | - | - |
| 1777700000 | 18.33° C | 28% | 1026.8 hPa | - | - | - | - |
| 1777699401 | 18.89° C | 26% | 1026.8 hPa | - | - | - | - |
| 1777698800 | 17.78° C | 29% | 1026.8 hPa | - | - | - | - |
| 1777698201 | 16.11° C | 31% | 1026.8 hPa | - | - | - | - |
| 1777697600 | 15.56° C | 31% | 1026.7 hPa | - | - | - | - |
| 1777697000 | 15° C | 32% | 1026.7 hPa | - | - | - | - |
| 1777696403 | 16.11° C | 30% | 1026.8 hPa | - | - | - | - |
| 1777695800 | 16.67° C | 30% | 1026.8 hPa | - | - | - | - |
| 1777695200 | 17.22° C | 30% | 1026.8 hPa | - | - | - | - |
| 1777694600 | 16.11° C | 31% | 1026.8 hPa | - | - | - | - |
| 1777694000 | 14.44° C | 35% | 1026.7 hPa | - | - | - | - |
| 1777693400 | 13.89° C | 35% | 1026.8 hPa | - | - | - | - |
| 1777692800 | 13.33° C | 36% | 1026.8 hPa | - | - | - | - |
| 1777692200 | 14.44° C | 35% | 1026.8 hPa | - | - | - | - |
| 1777691600 | 13.89° C | 35% | 1026.8 hPa | - | - | - | - |
| 1777691000 | 13.89° C | 36% | 1027 hPa | - | - | - | - |
| 1777690400 | 14.44° C | 36% | 1027 hPa | - | - | - | - |
| 1777689800 | 14.44° C | 35% | 1027.1 hPa | - | - | - | - |
| 1777689200 | 14.44° C | 36% | 1027.2 hPa | - | - | - | - |
* Rain since midnight (hover to see other rain measurements)
** Current wind speed in m/s (hover to see current wind gust speed)